Regional Weather Roundup
Issued by NWS Newport/Morehead, NC

Current Version | Previous Version | Graphics & Text | Print | Product List | Glossary Off
Versions: 1 2 3 4 5 6 7 8 9 10 11 12 13 14 15 16 17 18 19 20 21 22 23 24 25 26 27 28 29 30 31 32 33 34 35 36 37 38 39 40 41 42 43 44 45 46 47 48 49 50

000
ASUS42 KMHX 240113
RWRMHX
WEATHER ROUNDUP FOR EASTERN NORTH CAROLINA
NATIONAL WEATHER SERVICE NEWPORT/MOREHEAD CITY NC
900 PM EDT THU MAR 23 2017

NOTE: "FAIR" INDICATES FEW OR NO CLOUDS BELOW 12,000 FEET
WITH NO SIGNIFICANT WEATHER AND/OR OBSTRUCTIONS TO VISIBILITY

NCZ015>017-031-032-045>047-102-103-240200-
NORTH COAST

CITY           SKY/WX    TMP DP  RH WIND       PRES   REMARKS
EDENTON        CLEAR     39  28  63 E7        30.58S
ELIZABETH CITY CLEAR     36  25  64 E7        30.59S
KITTY HAWK     NOT AVBL
MANTEO         CLEAR     36  26  67 E3        30.61R

$$

NCZ045>047-081-094-103-104-240200-
CENTRAL COAST

CITY           SKY/WX    TMP DP  RH WIND       PRES   REMARKS
FRISCO         CLEAR     40  30  67 NE6       30.59R

$$

NCZ095-097-098-100-101-240200-
SOUTHERN COAST

CITY           SKY/WX    TMP DP  RH WIND       PRES   REMARKS
BEAUFORT       CLEAR     42  31  64 NE3       30.59R
CEDAR ISLAND   NOT AVBL
JACKSONVILLE   CLEAR     46  29  51 E9        30.56R
PINEY ISLAND   CLEAR    N/A N/A N/A E10       30.58R
WILMINGTON     CLEAR     47  30  51 E5        30.55R


$$

NCZ011>013-027>030-043-044-078>080-089-090>093-098-240200-
COASTAL PLAIN

CITY           SKY/WX    TMP DP  RH WIND       PRES   REMARKS
AHOSKIE          N/A     39  27  61 SE3       30.57R
CLINTON        CLEAR     46  33  59 SE3       30.54R
ELIZABETHTOWN  CLEAR     47  33  57 SE3       30.53S
GOLDSBORO      CLEAR     44  27  52 E3        30.52S
GREENVILLE     CLEAR     45  27  49 SE5       30.55R
HAVELOCK       CLEAR     39  31  72 E3        30.59R
KENANSVILLE    CLEAR     46  32  57 CALM      30.55R
KINSTON        CLEAR     46  27  46 E6        30.56R
NEW BERN       CLEAR     42  34  73 SE10      30.58R
RICHLANDS      CLEAR     43  31  62 E5        30.56R
ROCKY MOUNT    CLEAR     39  30  70 CALM      30.55R
WASHINGTON     CLEAR     40  26  57 E6        30.56S
WHITEVILLE     CLEAR     48  33  55 E3        30.52S

$$

AMZ130-135-150-152-154-156-158-170-250-252-270-ANZ085-086-088-633-658-670-240200-
MARINE OBSERVATIONS

STATION/POSITION TIME  TEMP    WIND        PRES    WAVE   SWELL
                       AIR SEA DIR/SP/G            HT/PER HT/PER
                 (UTC) (F)     (DEG/KT/KT) (MB)    (FT/S) (FT/S)
CHESAPEAKE LIGHT NOT AVBL
64 E VA BEACH    0050   40 49   60/  6/  8 1035.7    4/ 7   5/ 7
DUCK             0036   38 48   60/  7/  8 1035.5
2 E DUCK         0100      47                N/A     4/ 8   2/11
OREGON INLET     0048           50/  5/  8 1036.0
13E OREGON INLT  NOT AVBL
HATTERAS CG      0036   41 52   40/  8/ 13 1035.2
DIAMOND BUOY     0050   49 73   40/ 10/ 14 1035.4    8/11   8/11
CAPE LOOKOUT     0000   46      30/ 13/ 14 1034.6
BEAUFORT LAB     0036   42 52   50/  4/  5 1034.5
30 SE NEW RVR IN 0008   51      50/ 12/ 19 1034.6
30 SE NEW RVR IN 0043      68                N/A     5/11   2/11
27 SE WRIGHTSVLE 0008   51 61   80/ 16/ 21 1033.3
5 SE WRIGHTSVLE  0008   51 56  100/ 14/ 25 1034.1
225 S CAPE HAT   0050   62 72   50/ 19/ 25 1031.0    7/11   5/11
41 SE CHARLESTON 2350   61 71   50/ 21/ 25 1030.7    7/ 7   2/10

$$




USA.gov is the U.S. government's official web portal to all federal, state and local government web resources and services.